Location: Góry Miechowskie
(50.3599°N, 20.1803°E)
Time: 00:57:00
(UTC+00:00)

Cosmos 1937 Rocket - Visible Passes

Search period start: 18 September 2024 00:00
Search period end: 28 September 2024 00:00
Orbit: 744 x 777 km, 74.0° (Epoch: 17 September)

Date Brightness Start Highest point End Pass type
(mag) Time Alt. Az. Time Alt. Az. Time Alt. Az.
20 Sep 6.7 17:07:23 10° WNW 17:10:26 16° W 17:13:28 10° SW visible
25 Sep 6.8 03:30:50 10° ESE 03:33:11 13° E 03:35:33 10° ENE visible
27 Sep 5.7 03:51:21 10° SSE 03:55:50 30° E 04:00:22 10° NE visible
